+ View the NASA Portal
+ Center for Near-Earth Object Studies
IMPORTANT:
The SSD Announcement email list is now available. Major changes are coming in the near future, including possible hostname and/or URL changes. To be notified of such changes, subscribe to this email list.
Please visit
this page
for more details.
Don't show this message again
JPL Small-Body Database Browser
Search:
[
help
]
243827 (2000 TD25)
Classification:
Main-belt Asteroid
SPK-ID:
2243827
[
Ephemeris
|
Orbit Diagram
|
Orbital Elements
|
Mission Design
|
Physical Parameters
|
Discovery Circumstances
]
[ show orbit diagram ]
Orbital Elements at Epoch 2458600.5 (2019-Apr-27.0) TDB
Reference:
JPL 11
(heliocentric ecliptic J2000)
Element
Value
Uncertainty (1-sigma)
Units
e
.2261997152591018
6.5186e-08
a
2.395202909050235
1.7019e-08
au
q
1.8534086930353
1.5185e-07
au
i
5.01975503829798
5.4845e-06
deg
node
178.5574430117068
5.9895e-05
deg
peri
248.8350802723777
6.1258e-05
deg
M
329.4389121182082
1.0039e-05
deg
t
p
2458715.441854942606
(2019-Aug-19.94185494)
3.7814e-05
TDB
period
1353.978887773552
3.71
1.4431e-05
3.951e-08
d
yr
n
.2658830231776912
2.8337e-09
deg/d
Q
2.936997125065171
2.0868e-08
au
Orbit Determination Parameters
# obs. used (total)
370
data-arc span
6499 days (17.79 yr)
first obs. used
2000-09-24
last obs. used
2018-07-11
planetary ephem.
DE431
SB-pert. ephem.
SB431-N16
condition code
0
norm. resid. RMS
.51923
source
ORB
producer
Otto Matic
solution date
2019-Jul-13 13:55:39
Additional Information
Earth MOID
= .873874 au
Jupiter MOID
= 2.39431 au
T_jup
= 3.489
[ show covariance matrix ]
[
Ephemeris
|
Orbit Diagram
|
Orbital Elements
|
Mission Design
|
Physical Parameters
|
Discovery Circumstances
]
Physical Parameter Table
Parameter
Symbol
Value
Units
Sigma
Reference
Notes
absolute magnitude
H
16.6
n/a
MPO454790
243827 (2000 TD25)
Discovered 2000-Oct-02 by LINEAR at Socorro
Reference:
20100726/Numbers.arc
Last Updated:
2010-07-28
[
Ephemeris
|
Orbit Diagram
|
Orbital Elements
|
Mission Design
|
Physical Parameters
|
Discovery Circumstances
]
2019-Dec-16 03:17 UT
(server date/time)
Site Manager:
Ryan S. Park
Webmaster
:
Alan B. Chamberlin